| time (UTC) | temp C | wind direction | speed KPH | gust KPH | rain 1hr cm | rain 24hr cm | rain mn cm | humidity % | barometer mb |
| 20260505114304 | 2 | 333 | 14.5 | 19.3 | 0.08 | 0.51 | 0.30 | 91 | 1005.6 |
| 20260505113304 | 3 | 356 | 11.3 | 20.9 | 0.05 | 0.46 | 0.25 | 90 | 1005.6 |
| 20260505112804 | 3 | 349 | 14.5 | 24.1 | 0.05 | 0.46 | 0.25 | 90 | 1005.6 |
| 20260505111804 | 3 | 1 | 14.5 | 27.4 | 0.08 | 0.46 | 0.25 | 90 | 1005.6 |
| 20260505111304 | 3 | 8 | 16.1 | 27.4 | 0.08 | 0.46 | 0.25 | 91 | 1005.6 |
| 20260505101304 | 5 | 350 | 8.0 | 19.3 | 0.08 | 0.38 | 0.18 | 91 | 1005.6 |
| 20260505100804 | 5 | 3 | 12.9 | 19.3 | 0.05 | 0.36 | 0.15 | 91 | 1005.6 |
| 20260505095305 | 5 | 4 | 11.3 | 19.3 | 0.03 | 0.33 | 0.13 | 91 | 1005.6 |
| 20260505094304 | 5 | 11 | 11.3 | 19.3 | 0.03 | 0.30 | 0.10 | 91 | 1005.6 |
| 20260505093304 | 5 | 11 | 9.7 | 16.1 | 0.05 | 0.30 | 0.10 | 92 | 1005.6 |
| 20260505090804 | 6 | 2 | 9.7 | 19.3 | 0.10 | 0.30 | 0.10 | 92 | 1005.6 |
| 20260505090304 | 6 | 7 | 8.0 | 19.3 | 0.10 | 0.30 | 0.10 | 92 | 1005.6 |
| 20260505085804 | 6 | 16 | 9.7 | 16.1 | 0.10 | 0.30 | 0.10 | 92 | 1005.6 |
| 20260505085305 | 6 | 6 | 4.8 | 14.5 | 0.10 | 0.30 | 0.10 | 92 | 1005.6 |
| 20260505083803 | 6 | 299 | 3.2 | 9.7 | 0.05 | 0.25 | 0.05 | 91 | 1005.6 |
| 20260505080304 | 8 | 22 | 4.8 | 8.0 | 0.00 | 0.20 | 0.00 | 91 | 1005.6 |
| 20260505074804 | 8 | 0 | 3.2 | 4.8 | 0.00 | 0.20 | 0.00 | 92 | 1005.6 |
| 20260505074304 | 8 | 4 | 3.2 | 4.8 | 0.00 | 0.20 | 0.00 | 90 | 1005.6 |
| 20260505073304 | 8 | 144 | 3.2 | 4.8 | 0.00 | 0.20 | 0.00 | 90 | 1005.6 |
| 20260505072804 | 8 | 144 | 0.0 | 0.0 | 0.00 | 0.20 | 0.00 | 90 | 1005.6 |
| 20260505072305 | 8 | 144 | 0.0 | 0.0 | 0.00 | 0.20 | 0.00 | 90 | 1005.6 |
| 20260505070304 | 8 | 144 | 0.0 | 3.2 | 0.00 | 0.20 | 0.00 | 90 | 1005.6 |
| 20260505065804 | 8 | 144 | 0.0 | 3.2 | 0.00 | 0.20 | 0.00 | 90 | 1005.6 |
| 20260505064304 | 8 | 144 | 0.0 | 0.0 | 0.00 | 0.20 | 0.00 | 89 | 1005.6 |
| 20260505063804 | 8 | 144 | 0.0 | 0.0 | 0.00 | 0.20 | 0.00 | 89 | 1005.6 |
| 20260505063304 | 8 | 144 | 0.0 | 0.0 | 0.00 | 0.20 | 0.00 | 89 | 1005.6 |
| 20260505062304 | 8 | 144 | 1.6 | 4.8 | 0.00 | 0.20 | 0.00 | 89 | 1005.6 |
| 20260505060816 | 8 | 178 | 3.2 | 9.7 | 0.00 | 0.20 | 0.00 | 89 | 1005.6 |
| 20260505055804 | 8 | 198 | 3.2 | 8.0 | 0.00 | 0.20 | 0.20 | 90 | 1005.6 |
| 20260505055304 | 8 | 177 | 4.8 | 8.0 | 0.00 | 0.20 | 0.20 | 90 | 1005.6 |
| 20260505054804 | 8 | 185 | 3.2 | 4.8 | 0.00 | 0.20 | 0.20 | 87 | 1005.6 |
| 20260505053804 | 8 | 183 | 3.2 | 4.8 | 0.00 | 0.20 | 0.20 | 87 | 1005.6 |
| 20260505052304 | 8 | 183 | 1.6 | 4.8 | 0.03 | 0.20 | 0.20 | 87 | 1005.6 |
| 20260505051805 | 8 | 174 | 3.2 | 8.0 | 0.05 | 0.20 | 0.20 | 87 | 1005.6 |
| 20260505050804 | 8 | 219 | 0.0 | 3.2 | 0.05 | 0.20 | 0.20 | 87 | 1005.6 |
| 20260505041305 | 9 | 236 | 3.2 | 4.8 | 0.10 | 0.15 | 0.15 | 87 | 1005.6 |
| 20260505040304 | 9 | 252 | 4.8 | 11.3 | 0.15 | 0.15 | 0.15 | 87 | 1005.6 |
| 20260505035804 | 9 | 260 | 3.2 | 8.0 | 0.15 | 0.15 | 0.15 | 87 | 1005.6 |
| 20260505034804 | 9 | 288 | 6.4 | 12.9 | 0.13 | 0.13 | 0.13 | 85 | 1005.6 |
| 20260505033303 | 9 | 272 | 9.7 | 19.3 | 0.10 | 0.10 | 0.10 | 85 | 1005.6 |
| 20260505032803 | 9 | 279 | 6.4 | 9.7 | 0.08 | 0.08 | 0.08 | 84 | 1005.6 |
| 20260505032304 | 10 | 280 | 4.8 | 14.5 | 0.08 | 0.08 | 0.08 | 81 | 1005.6 |
| 20260505031804 | 10 | 286 | 6.4 | 19.3 | 0.05 | 0.05 | 0.05 | 80 | 1005.6 |
| 20260505030804 | 10 | 331 | 4.8 | 9.7 | 0.03 | 0.03 | 0.03 | 76 | 1010.4 |
| 20260505025803 | 11 | 339 | 6.4 | 11.3 | 0.00 | 0.00 | 0.00 | 68 | 1010.4 |
| 20260505025305 | 11 | 341 | 8.0 | 19.3 | 0.00 | 0.00 | 0.00 | 67 | 1010.4 |
| 20260505024804 | 11 | 358 | 9.7 | 12.9 | 0.00 | 0.00 | 0.00 | 64 | 1010.4 |
| 20260505021804 | 12 | 310 | 8.0 | 12.9 | 0.00 | 0.00 | 0.00 | 63 | 1010.4 |
| 20260505015304 | 12 | 329 | 11.3 | 22.5 | 0.00 | 0.00 | 0.00 | 62 | 1010.4 |
| 20260505014804 | 12 | 317 | 14.5 | 22.5 | 0.00 | 0.00 | 0.00 | 60 | 1010.4 |
| 20260505013804 | 13 | 354 | 6.4 | 14.5 | 0.00 | 0.00 | 0.00 | 53 | 1010.4 |
| 20260505010804 | 14 | 30 | 0.0 | 3.2 | 0.00 | 0.00 | 0.00 | 49 | 1010.4 |
| 20260505005304 | 15 | 5 | 1.6 | 8.0 | 0.00 | 0.00 | 0.00 | 49 | 1010.4 |
| 20260505004804 | 15 | 9 | 1.6 | 8.0 | 0.00 | 0.00 | 0.00 | 48 | 1010.4 |
| 20260505004303 | 15 | 35 | 3.2 | 11.3 | 0.00 | 0.00 | 0.00 | 47 | 1010.4 |
| 20260505003804 | 14 | 359 | 9.7 | 19.3 | 0.00 | 0.00 | 0.00 | 47 | 1010.4 |
| 20260505003304 | 14 | 354 | 12.9 | 19.3 | 0.00 | 0.00 | 0.00 | 48 | 1010.4 |
| 20260505002804 | 15 | 349 | 11.3 | 20.9 | 0.00 | 0.00 | 0.00 | 48 | 1010.4 |
| 20260505002304 | 15 | 338 | 11.3 | 27.4 | 0.00 | 0.00 | 0.00 | 47 | 1010.4 |
| 20260505001303 | 16 | 343 | 16.1 | 24.1 | 0.00 | 0.00 | 0.00 | 42 | 1010.4 |
| 20260505000803 | 16 | 335 | 9.7 | 22.5 | 0.00 | 0.00 | 0.00 | 39 | 1010.4 |
| 20260505000304 | 16 | 347 | 11.3 | 20.9 | 0.00 | 0.00 | 0.00 | 38 | 1010.4 |
| 20260504235804 | 16 | 357 | 11.3 | 27.4 | 0.00 | 0.00 | 0.00 | 38 | 1010.4 |
| 20260504233804 | 16 | 325 | 14.5 | 20.9 | 0.00 | 0.00 | 0.00 | 40 | 1010.4 |
| 20260504233304 | 16 | 354 | 14.5 | 22.5 | 0.00 | 0.00 | 0.00 | 41 | 1010.4 |
| 20260504232804 | 17 | 10 | 8.0 | 12.9 | 0.00 | 0.00 | 0.00 | 37 | 1010.4 |
| 20260504232304 | 16 | 211 | 3.2 | 8.0 | 0.00 | 0.00 | 0.00 | 37 | 1010.4 |
| 20260504230804 | 16 | 92 | 9.7 | 20.9 | 0.00 | 0.00 | 0.00 | 38 | 1010.4 |
| 20260504230304 | 17 | 258 | 16.1 | 33.8 | 0.00 | 0.00 | 0.00 | 39 | 1010.4 |
| 20260504224304 | 17 | 345 | 12.9 | 19.3 | 0.00 | 0.00 | 0.00 | 32 | 1010.4 |
| 20260504223304 | 17 | 355 | 14.5 | 25.7 | 0.00 | 0.00 | 0.00 | 32 | 1010.4 |
| 20260504222804 | 17 | 340 | 12.9 | 32.2 | 0.00 | 0.00 | 0.00 | 32 | 1010.4 |
| 20260504221803 | 18 | 3 | 16.1 | 27.4 | 0.00 | 0.00 | 0.00 | 31 | 1010.4 |
| 20260504220304 | 18 | 6 | 19.3 | 32.2 | 0.00 | 0.00 | 0.00 | 30 | 1010.4 |
| 20260504215804 | 19 | 355 | 17.7 | 41.8 | 0.00 | 0.00 | 0.00 | 29 | 1010.4 |
| 20260504214804 | 20 | 16 | 25.7 | 38.6 | 0.00 | 0.00 | 0.00 | 29 | 1010.4 |
| 20260504214304 | 20 | 5 | 20.9 | 41.8 | 0.00 | 0.00 | 0.00 | 30 | 1010.4 |
| 20260504212804 | 20 | 7 | 24.1 | 40.2 | 0.00 | 0.00 | 0.00 | 29 | 1010.4 |
| 20260504210804 | 19 | 350 | 19.3 | 32.2 | 0.00 | 0.00 | 0.00 | 27 | 1010.4 |
| 20260504210304 | 20 | 332 | 9.7 | 16.1 | 0.00 | 0.00 | 0.00 | 25 | 1010.4 |
| 20260504205803 | 20 | 252 | 6.4 | 14.5 | 0.00 | 0.00 | 0.00 | 24 | 1010.4 |
| 20260504205304 | 19 | 255 | 6.4 | 12.9 | 0.00 | 0.00 | 0.00 | 24 | 1010.4 |
| 20260504204803 | 20 | 223 | 8.0 | 14.5 | 0.00 | 0.00 | 0.00 | 23 | 1010.4 |
| 20260504203303 | 19 | 164 | 8.0 | 11.3 | 0.00 | 0.00 | 0.00 | 23 | 1010.4 |
| 20260504202804 | 19 | 216 | 9.7 | 19.3 | 0.00 | 0.00 | 0.00 | 24 | 1010.4 |
| 20260504201303 | 18 | 178 | 12.9 | 32.2 | 0.00 | 0.00 | 0.00 | 27 | 1010.4 |
| 20260504200804 | 18 | 212 | 20.9 | 40.2 | 0.00 | 0.00 | 0.00 | 26 | 1010.4 |
| 20260504194803 | 21 | 219 | 4.8 | 9.7 | 0.00 | 0.00 | 0.00 | 18 | 1010.4 |
| 20260504194303 | 21 | 346 | 6.4 | 11.3 | 0.00 | 0.00 | 0.00 | 18 | 1010.4 |
| 20260504193304 | 22 | 353 | 8.0 | 12.9 | 0.00 | 0.00 | 0.00 | 19 | 1010.4 |
| 20260504191804 | 22 | 287 | 9.7 | 20.9 | 0.00 | 0.00 | 0.00 | 19 | 1010.4 |
| 20260504191304 | 22 | 355 | 6.4 | 12.9 | 0.00 | 0.00 | 0.00 | 20 | 1010.4 |
| 20260504184803 | 22 | 314 | 9.7 | 19.3 | 0.00 | 0.00 | 0.00 | 20 | 1010.4 |
| 20260504182803 | 23 | 307 | 9.7 | 22.5 | 0.00 | 0.00 | 0.00 | 18 | 1010.4 |
| 20260504182304 | 24 | 329 | 11.3 | 24.1 | 0.00 | 0.00 | 0.00 | 20 | 1010.4 |
| 20260504181804 | 23 | 279 | 14.5 | 22.5 | 0.00 | 0.00 | 0.00 | 21 | 1010.4 |
| 20260504175804 | 22 | 276 | 16.1 | 29.0 | 0.00 | 0.00 | 0.00 | 22 | 1010.4 |
| 20260504175304 | 22 | 333 | 16.1 | 32.2 | 0.00 | 0.00 | 0.00 | 23 | 1010.4 |
| 20260504173304 | 21 | 302 | 11.3 | 24.1 | 0.00 | 0.00 | 0.00 | 24 | 1010.4 |
| 20260504172803 | 22 | 319 | 12.9 | 29.0 | 0.00 | 0.00 | 0.00 | 23 | 1010.4 |
| 20260504170803 | 21 | 286 | 14.5 | 32.2 | 0.00 | 0.00 | 0.00 | 24 | 1010.4 |
| 20260504160303 | 19 | 276 | 16.1 | 29.0 | 0.00 | 0.00 | 0.00 | 26 | 1010.4 |
| 20260504140805 | 12 | 171 | 1.6 | 4.8 | 0.00 | 0.00 | 0.00 | 40 | 1010.4 |
| 20260504130305 | 9 | 0 | 0.0 | 0.0 | 0.00 | 0.00 | 0.00 | 45 | 1010.4 |
| 20260504120304 | 6 | 169 | 0.0 | 1.6 | 0.00 | 0.00 | 0.00 | 54 | 1010.4 |